This demonstration page uses our WeatherBlox Daily Observations layout. Learn more.

Left ArrowRight Arrow

38.20091, -84.87328

Hourly Observations for August 20, 2019

Temp ( °F °C ) Dew Point ( °F °C ) Humidity (%) Winds ( mph kmh ) Pressure ( in mb ) Visibility ( mi km ) Precip ( " mm )
12:53 am 00:53 Clear 78 25.6 71 21.7 79 79 Calm 30.01 1016 10 16 0.00 0.00
1:53 am 01:53 Clear 77 25 70 21.1 79 79 W 5 7 30.01 1016 10 16 0.00 0.00
2:53 am 02:53 Clear 75 23.9 70 21.1 84 84 Calm 30.01 1016 10 16 0.00 0.00
3:53 am 03:53 Clear 75 23.9 70 21.1 84 84 Calm 30.01 1016 10 16 0.00 0.00
4:53 am 04:53 Clear 74 23.3 70 21.1 88 88 SSW 3 6 30.02 1017 10 16 0.00 0.00
5:53 am 05:53 Clear 73 22.8 70 21.1 90 90 Calm 30.03 1017 8 13 0.00 0.00
6:53 am 06:53 Clear 72 22.2 69 20.6 91 91 Calm 30.03 1017 9 14 0.00 0.00
7:53 am 07:53 Sunny 75 23.9 71 21.7 88 88 Calm 30.03 1017 8 13 0.00 0.00
8:53 am 08:53 Sunny 80 26.7 72 22.2 76 76 WSW 3 6 30.02 1017 10 16 0.00 0.00
9:53 am 09:53 Mostly Sunny 85 29.4 73 22.8 68 68 VRB 5 7 30.06 1018 10 16 0.00 0.00
10:53 am 10:53 Mostly Sunny 89 31.7 74 23.3 61 61 VRB 5 7 30.06 1018 10 16 0.00 0.00
11:53 am 11:53 Mostly Sunny 91 32.8 71 21.7 52 52 SSW 10 17 30.06 1018 10 16 0.00 0.00
12:37 pm 12:37 Partly Cloudy with Nearby Thunderstorms 92 33.3 72 22.2 52 52 Calm 30.02 1016 10 16 0.00 0.00
12:53 pm 12:53 Mostly Sunny 91 32.8 72 22.2 54 54 WSW 5 7 30.03 1017 10 16 0.00 0.00
1:31 pm 13:31 Sunny with Thunderstorms 92 33.3 69 20.6 47 47 WSW 9 15 30.01 1016 10 16 0.00 0.00
1:46 pm 13:46 Sunny 93 33.9 68 20 44 44 SSW 10 17 29.99 1016 10 16 0.00 0.00
1:53 pm 13:53 Sunny 92 33.3 69 20.6 47 47 SW 8 13 30.02 1017 10 16 0.00 0.00
2:53 pm 14:53 Sunny 83 28.3 74 23.3 74 74 NNW 5 7 30.01 1016 10 16 0.05 1.27
3:53 pm 15:53 Sunny 90 32.2 72 22.2 56 56 Calm 29.98 1015 10 16 0.00 0.00
4:26 pm 16:26 Partly Cloudy with Nearby Thunderstorms 91 32.8 70 21.1 50 50 NNW 3 6 29.96 1014 10 16 0.00 0.00
4:40 pm 16:40 Partly Cloudy with Thunderstorms 90 32.2 71 21.7 54 54 undefined N/A 29.96 1014 10 16 0.00 0.00
4:53 pm 16:53 Mostly Cloudy with Thunderstorms 76 24.4 70 21.1 82 82 S 13 20 30.01 1016 3 5 0.01 0.25
5:31 pm 17:31 Mostly Cloudy with Strong Thunderstorms 73 22.8 69 20.6 87 87 W 16 26 30.03 1017 1 1 0.20 5.08
5:39 pm 17:39 Cloudy with Strong Thunderstorms 74 23.3 67 19.4 79 79 WNW 7 11 30.04 1017 1 1 0.38 9.65
5:44 pm 17:44 Cloudy with Strong Thunderstorms 73 22.8 68 20 84 84 WNW 25 41 30.08 1019 1 2 0.41 10.41
5:53 pm 17:53 Cloudy with Nearby Thunderstorms 73 22.8 68 20 84 84 NW 18 30 30.09 1019 2 3 0.48 12.19
5:57 pm 17:57 Cloudy with Strong Thunderstorms 72 22.2 68 20 87 87 NW 25 41 30.06 1018 1 1 0.11 2.79
6:11 pm 18:11 Cloudy with Nearby Thunderstorms 71 21.7 68 20 90 90 W 9 15 30.07 1018 1 2 0.32 8.13
6:19 pm 18:19 Cloudy with Nearby Thunderstorms 72 22.2 69 20.6 91 91 NW 9 15 30.06 1018 1 2 0.38 9.65
6:27 pm 18:27 Cloudy with Nearby Thunderstorms 72 22.2 69 20.6 91 91 NNW 9 15 30.05 1018 3 5 0.40 10.16
6:44 pm 18:44 Partly Cloudy 72 22.2 70 21.1 94 94 Calm 30.05 1018 10 16 0.40 10.16
6:53 pm 18:53 Mostly Sunny 72 22.2 70 21.1 94 94 Calm 30.05 1018 10 16 0.40 10.16
7:53 pm 19:53 Partly Cloudy with Light Rain 73 22.8 70 21.1 90 90 ENE 5 7 29.98 1015 10 16 0.00 0.00
8:53 pm 20:53 Clear 72 22.2 70 21.1 94 94 S 7 11 29.97 1015 10 16 0.00 0.00
9:53 pm 21:53 Clear 71 21.7 69 20.6 94 94 SSW 3 6 29.95 1014 10 16 0.00 0.00
10:53 pm 22:53 Clear 70 21.1 68 20 93 93 Calm 29.97 1015 10 16 0.00 0.00
11:53 pm 23:53 Clear 69 20.6 67 19.4 93 93 Calm 30.00 1016 7 11 0.00 0.00

Powered by AerisWeather